Weather History for Harlingen, TX

Change the Weather History Date:

Thursday, March 13, 2014

  Actual Average Record
Temperature  
Mean Temperature 58 °F 68 °F  
Max Temperature 72 °F 80 °F 102 °F (1954)
Min Temperature 44 °F 57 °F 20 °F (2007)
Degree Days  
Heating Degree Days 8 2  
Month to date heating degree days 30  
Since 1 July heating degree days 598  
Cooling Degree Days 0 5  
Month to date cooling degree days 57  
Year to date cooling degree days 182  
Growing Degree Days 8 (Base 50)    
Moisture  
Dew Point 46 °F    
Average Humidity 65    
Maximum Humidity 90    
Minimum Humidity 46    
Precipitation  
Precipitation 0.00 in 0.04 in 0.18 in (1960)
Month to date precipitation 0.48  
Year to date precipitation 2.95  
Sea Level Pressure  
Sea Level Pressure 30.23 in    
Wind  
Wind Speed 8 mph (NE)    
Max Wind Speed 15 mph    
Max Gust Speed 22 mph    
Visibility 10 miles    
Events      
T = Trace of Precipitation, MM = Missing Value Source: NWS Daily Summary

Daily Weather History Graph

Daily Weather History Graph

Search for Another Location

Airport:

Trip Planner

Search our weather history database for the weather conditions in past years. The results will help you decide how hot, cold, wet, or windy it might be!

Date:

Astronomy

Mar. 13, 2014 Rise Set
Actual Time 7:41 AM CDT 7:38 PM CDT
Civil Twilight 7:18 AM CDT 8:01 PM CDT
Nautical Twilight 6:52 AM CDT 8:28 PM CDT
Astronomical Twilight 6:25 AM CDT 8:55 PM CDT
Moon 5:16 PM CDT (3/13) 5:36 AM CDT (3/13)
Length of Visible Light 12h 42m
Length of Day
11h 56m
Waxing Gibbous, 91% of the Moon is Illuminated
Mar 13
Waxing Gibbous
Mar 16
Full
Mar 23
Last Quarter
Mar 30
New
Apr 7
First Quarter

Hourly Weather History & Observations

Time (CDT) Temp. Windchill Dew Point Humidity Pressure Visibility Wind Dir Wind Speed Gust Speed Precip Events Conditions
12:52 AM 52.0 °F - 41.0 °F 66% 30.26 in 10.0 mi North 6.9 mph - N/A   Clear
1:52 AM 50.0 °F - 41.0 °F 71% 30.27 in 10.0 mi North 8.1 mph - N/A   Clear
2:52 AM 51.1 °F - 39.0 °F 63% 30.26 in 10.0 mi NNE 8.1 mph - N/A   Clear
3:52 AM 50.0 °F - 37.9 °F 63% 30.25 in 10.0 mi NNE 8.1 mph - N/A   Clear
4:52 AM 48.9 °F - 39.0 °F 69% 30.25 in 10.0 mi North 6.9 mph - N/A   Clear
5:52 AM 46.9 °F - 39.0 °F 74% 30.27 in 10.0 mi NNW 5.8 mph - N/A   Clear
6:52 AM 44.1 °F 40.1 °F 39.0 °F 82% 30.28 in 10.0 mi NW 6.9 mph - N/A   Clear
7:52 AM 46.9 °F - 41.0 °F 80% 30.29 in 10.0 mi NNW 5.8 mph - N/A   Clear
8:52 AM 52.0 °F - 44.1 °F 74% 30.31 in 10.0 mi NNW 8.1 mph - N/A   Overcast
9:52 AM 57.0 °F - 46.0 °F 67% 30.32 in 10.0 mi North 6.9 mph - N/A   Partly Cloudy
10:52 AM 64.9 °F - 48.0 °F 54% 30.32 in 10.0 mi ENE 8.1 mph - N/A   Clear
11:52 AM 68.0 °F - 48.0 °F 49% 30.30 in 10.0 mi East 9.2 mph 18.4 mph N/A   Clear
12:52 PM 70.0 °F - 48.0 °F 46% 30.29 in 10.0 mi East 6.9 mph - N/A   Clear
1:52 PM 70.0 °F - 48.0 °F 46% 30.25 in 10.0 mi ENE 9.2 mph - N/A   Clear
2:52 PM 70.0 °F - 48.9 °F 47% 30.20 in 10.0 mi East 9.2 mph - N/A   Partly Cloudy
3:52 PM 71.1 °F - 50.0 °F 47% 30.18 in 10.0 mi ENE 10.4 mph - N/A   Partly Cloudy
4:52 PM 69.1 °F - 50.0 °F 51% 30.15 in 10.0 mi East 15.0 mph 21.9 mph N/A   Scattered Clouds
5:52 PM 69.1 °F - 51.1 °F 53% 30.15 in 10.0 mi East 13.8 mph - N/A   Clear
6:52 PM 66.0 °F - 51.1 °F 59% 30.15 in 10.0 mi East 12.7 mph - N/A   Clear
7:52 PM 62.1 °F - 52.0 °F 70% 30.15 in 10.0 mi East 9.2 mph - N/A   Clear
8:52 PM 59.0 °F - 52.0 °F 78% 30.15 in 10.0 mi ESE 6.9 mph - N/A   Clear
9:52 PM 59.0 °F - 53.1 °F 81% 30.15 in 10.0 mi ESE 6.9 mph - N/A   Clear
10:52 PM 57.0 °F - 53.1 °F 87% 30.14 in 10.0 mi ESE 4.6 mph - N/A   Clear
11:52 PM 55.9 °F - 53.1 °F 90% 30.12 in 10.0 mi ESE 5.8 mph - N/A   Clear